FW9113 Weather Reports


time (UTC)temp
C
wind
direction
speed
KPH
gust
KPH
rain 1hr
cm
rain 24hr
cm
rain mn
cm
humidity
%
barometer
mb
20260507042119 6 307 0.0 3.2 0.00 0.05 0.00 90 1013.4
20260507041618 6 331 0.0 0.0 0.00 0.05 0.00 90 1013.4
20260507041117 6 328 0.0 4.8 0.00 0.05 0.00 89 1013.4
20260507040616 6 5 0.0 4.8 0.00 0.05 0.00 89 1013.3
20260507040113 6 348 0.0 1.6 0.00 0.05 0.00 89 1013.3
20260507035612 6 351 0.0 3.2 0.00 0.05 0.00 89 1013.2
20260507035111 6 313 0.0 4.8 0.00 0.05 0.00 89 1013.3
20260507034609 6 0 1.6 4.8 0.00 0.05 0.00 89 1013.2
20260507034109 6 335 1.6 4.8 0.00 0.05 0.00 89 1013.2
20260507033605 6 336 1.6 6.4 0.00 0.05 0.00 89 1013.1
20260507033105 6 24 3.2 6.4 0.00 0.05 0.00 89 1013.2
20260507032603 6 337 1.6 4.8 0.00 0.05 0.00 89 1013.2
20260507032104 6 345 1.6 6.4 0.00 0.08 0.00 89 1013.2
20260507031844 6 346 1.6 6.4 0.00 0.08 0.00 89 1013.2
20260507031348 6 350 1.6 6.4 0.00 0.08 0.00 89 1013.2
20260507030847 6 19 1.6 6.4 0.00 0.08 0.00 89 1013.1
20260507030106 7 355 1.6 6.4 0.00 0.10 0.00 89 1013.1
20260507025602 7 11 1.6 6.4 0.00 0.10 0.00 89 1013.1
20260507025103 7 11 1.6 6.4 0.00 0.10 0.00 89 1013.1
20260507024656 7 339 1.6 6.4 0.00 0.10 0.00 89 1013.0
20260507024640 7 346 1.6 6.4 0.00 0.10 0.00 88 1013.0
20260507023602 7 343 1.6 4.8 0.00 0.10 0.00 89 1013.0
20260507023105 7 342 1.6 6.4 0.00 0.10 0.00 89 1012.9
20260507022602 7 19 3.2 6.4 0.00 0.13 0.00 89 1012.9
20260507022412 7 9 1.6 6.4 0.00 0.13 0.00 88 1012.8
20260507021855 7 53 1.6 6.4 0.00 0.13 0.00 88 1012.8
20260507021104 7 23 3.2 6.4 0.00 0.13 0.00 88 1012.8
20260507020602 7 5 3.2 6.4 0.00 0.13 0.00 88 1012.8
20260507015604 7 5 3.2 8.0 0.00 0.15 0.00 88 1012.7
20260507015057 7 29 1.6 6.4 0.00 0.15 0.00 88 1012.7
20260507014551 7 34 1.6 4.8 0.00 0.15 0.00 88 1012.7
20260507014048 7 355 1.6 8.0 0.00 0.15 0.00 88 1012.7
20260507013539 7 341 3.2 8.0 0.00 0.15 0.00 88 1012.7
20260507013036 7 277 3.2 6.4 0.00 0.15 0.00 88 1012.7
20260507012536 7 11 3.2 6.4 0.00 0.15 0.00 88 1012.7
20260507012037 7 30 3.2 6.4 0.00 0.15 0.00 88 1012.6
20260507011535 7 316 3.2 8.0 0.00 0.18 0.00 88 1012.6
20260507011038 7 36 3.2 8.0 0.00 0.18 0.00 88 1012.5
20260507010536 7 19 3.2 8.0 0.00 0.18 0.00 88 1012.5
20260507010038 7 36 1.6 8.0 0.00 0.18 0.00 88 1012.4
20260507005536 7 11 3.2 12.9 0.00 0.18 0.00 87 1012.4
20260507005035 7 11 3.2 12.9 0.00 0.18 0.00 87 1012.4
20260507004535 7 16 3.2 8.0 0.00 0.18 0.00 87 1012.4
20260507004131 7 5 3.2 9.7 0.00 0.18 0.00 87 1012.3
20260507004113 7 14 3.2 8.0 0.00 0.18 0.00 87 1012.3
20260507003031 8 337 3.2 11.3 0.00 0.18 0.00 86 1012.3
20260507002532 8 324 4.8 11.3 0.00 0.18 0.00 86 1012.3
20260507002322 8 68 4.8 11.3 0.00 0.18 0.00 86 1012.3
20260507001534 8 19 4.8 12.9 0.00 0.18 0.00 86 1012.1
20260507001031 8 323 4.8 12.9 0.00 0.18 0.00 85 1012.1
20260507000526 8 25 4.8 12.9 0.00 0.18 0.00 85 1012.0
20260507000025 8 14 4.8 11.3 0.00 0.18 0.00 85 1012.1
20260506235527 8 21 3.2 9.7 0.00 0.18 0.00 85 1012.1
20260506235025 8 333 3.2 9.7 0.00 0.18 0.00 84 1012.1
20260506234526 8 11 4.8 12.9 0.00 0.18 0.00 84 1012.1
20260506234029 8 343 6.4 14.5 0.00 0.18 0.00 84 1012.1
20260506233819 8 325 6.4 16.1 0.00 0.18 0.00 84 1012.1
20260506233026 9 351 4.8 16.1 0.00 0.18 0.00 84 1012.0
20260506232527 9 12 4.8 16.1 0.00 0.18 0.00 83 1012.1
20260506232029 9 5 4.8 16.1 0.00 0.18 0.00 83 1012.1
20260506231812 9 0 4.8 14.5 0.00 0.18 0.00 83 1012.0
20260506231019 9 349 6.4 14.5 0.00 0.18 0.00 83 1012.1
20260506230517 9 18 6.4 12.9 0.00 0.18 0.00 84 1012.1
20260506230017 9 340 6.4 12.9 0.00 0.18 0.00 84 1012.0
20260506225517 9 355 4.8 12.9 0.00 0.18 0.00 84 1011.9
20260506225017 9 345 4.8 14.5 0.00 0.18 0.00 84 1011.9
20260506224520 9 13 4.8 14.5 0.00 0.18 0.00 84 1011.9
20260506224017 10 23 4.8 11.3 0.00 0.18 0.00 85 1011.9
20260506223519 10 69 3.2 9.7 0.00 0.18 0.00 85 1011.8
20260506223018 10 305 3.2 8.0 0.00 0.18 0.00 85 1011.7
20260506222518 10 5 3.2 8.0 0.00 0.18 0.00 85 1011.7
20260506222017 10 330 3.2 8.0 0.00 0.18 0.00 85 1011.7
20260506221518 10 355 1.6 8.0 0.00 0.18 0.00 85 1011.7
20260506221018 10 10 0.0 3.2 0.00 0.18 0.00 85 1011.7
20260506220517 10 30 0.0 1.6 0.00 0.18 0.00 84 1011.8
20260506220018 10 319 0.0 1.6 0.00 0.18 0.00 84 1011.7
20260506215518 10 319 0.0 1.6 0.00 0.18 0.18 84 1011.7
20260506215016 10 319 0.0 1.6 0.00 0.18 0.18 84 1011.6
20260506214518 10 319 0.0 0.0 0.00 0.18 0.18 84 1011.7
20260506214017 10 13 0.0 0.0 0.00 0.18 0.18 84 1011.6
20260506213514 10 84 0.0 0.0 0.00 0.18 0.18 84 1011.6
20260506213015 10 84 0.0 0.0 0.00 0.18 0.18 83 1011.6
20260506212511 10 84 0.0 0.0 0.00 0.18 0.18 84 1011.5
20260506212008 10 21 1.6 6.4 0.00 0.18 0.18 84 1011.5
20260506211505 10 27 1.6 6.4 0.00 0.18 0.18 84 1011.5
20260506211007 10 327 0.0 4.8 0.00 0.18 0.18 84 1011.5
20260506210506 10 355 0.0 1.6 0.00 0.18 0.18 84 1011.5
20260506210012 10 28 0.0 3.2 0.00 0.18 0.18 84 1011.5
20260506205800 10 28 0.0 3.2 0.00 0.18 0.18 83 1011.5
20260506205009 10 5 0.0 1.6 0.00 0.18 0.18 83 1011.5
20260506204749 10 355 0.0 3.2 0.00 0.18 0.18 83 1011.5
20260506204258 10 348 0.0 3.2 0.00 0.18 0.18 83 1011.4
20260506203507 10 302 0.0 1.6 0.00 0.18 0.18 83 1011.4
20260506203007 10 302 0.0 0.0 0.00 0.18 0.18 83 1011.3
20260506202507 10 302 0.0 0.0 0.00 0.18 0.18 82 1011.3
20260506202008 10 302 0.0 0.0 0.00 0.18 0.18 82 1011.2
20260506201505 10 302 0.0 3.2 0.00 0.18 0.18 81 1011.2
20260506201008 10 310 0.0 3.2 0.00 0.18 0.18 81 1011.2
20260506200758 10 338 0.0 3.2 0.00 0.18 0.18 81 1011.2
20260506200006 10 330 0.0 1.6 0.00 0.18 0.18 80 1011.1
20260506195505 10 330 0.0 4.8 0.00 0.18 0.18 80 1011.1
20260506195006 10 309 0.0 4.8 0.00 0.18 0.18 80 1011.0
20260506194754 10 355 0.0 4.8 0.00 0.18 0.18 80 1011.0
20260506194001 10 14 0.0 3.2 0.00 0.18 0.18 80 1010.9
20260506193455 10 5 0.0 4.8 0.00 0.18 0.18 80 1010.9
20260506193252 10 18 0.0 4.8 0.00 0.18 0.18 80 1010.9
20260506192455 10 9 0.0 1.6 0.00 0.18 0.18 80 1010.8
20260506191950 10 9 0.0 0.0 0.00 0.18 0.18 79 1010.7
20260506191451 10 9 0.0 0.0 0.00 0.18 0.18 79 1010.6
20260506190950 10 9 0.0 3.2 0.00 0.18 0.18 79 1010.6
20260506190738 10 11 0.0 3.2 0.00 0.18 0.18 79 1010.5
20260506185947 10 11 0.0 3.2 0.00 0.18 0.18 79 1010.5
20260506185448 10 5 0.0 6.4 0.00 0.18 0.18 78 1010.5
20260506184947 10 355 0.0 6.4 0.00 0.18 0.18 79 1010.5
20260506184449 10 5 0.0 3.2 0.00 0.18 0.18 79 1010.4
20260506183945 10 14 1.6 4.8 0.00 0.18 0.18 78 1010.3
20260506183445 10 5 1.6 6.4 0.00 0.18 0.18 78 1010.3
20260506182946 10 0 3.2 6.4 0.00 0.18 0.18 77 1010.3
20260506182446 10 60 3.2 8.0 0.00 0.18 0.18 77 1010.2
20260506181945 10 24 3.2 8.0 0.00 0.18 0.18 77 1010.1
20260506181438 11 24 4.8 9.7 0.00 0.18 0.18 76 1010.1
20260506180939 11 32 4.8 9.7 0.00 0.18 0.18 76 1010.1
20260506180441 11 347 4.8 12.9 0.00 0.18 0.18 76 1010.0
20260506180244 11 355 4.8 12.9 0.00 0.18 0.18 76 1009.9
20260506175436 11 5 4.8 12.9 0.00 0.18 0.18 76 1009.9
20260506175345 11 20 4.8 16.1 0.00 0.18 0.18 76 1009.7
20260506175016 11 5 4.8 12.9 0.00 0.18 0.18 76 1009.8
20260506173937 11 32 4.8 16.1 0.00 0.18 0.18 77 1009.6
20260506173435 11 338 4.8 14.5 0.00 0.18 0.18 76 1009.6
20260506172933 11 24 3.2 11.3 0.00 0.18 0.18 77 1009.6
20260506172434 11 84 3.2 11.3 0.00 0.18 0.18 77 1009.5
20260506172244 11 350 3.2 14.5 0.00 0.18 0.18 77 1009.4
20260506171431 11 19 4.8 14.5 0.00 0.18 0.18 76 1009.4
20260506170932 11 53 4.8 9.7 0.00 0.18 0.18 76 1009.2
20260506170432 11 16 4.8 9.7 0.00 0.18 0.18 76 1009.2
20260506165932 11 0 4.8 8.0 0.00 0.18 0.18 76 1009.2
20260506165544 11 338 4.8 14.5 0.00 0.18 0.18 76 1009.3
20260506165517 11 5 3.2 9.7 0.00 0.18 0.18 76 1009.3
20260506164437 11 44 6.4 14.5 0.00 0.18 0.18 75 1009.3
20260506163929 11 59 4.8 14.5 0.00 0.18 0.18 75 1009.3
20260506163429 11 355 4.8 12.9 0.00 0.18 0.18 76 1009.3
20260506163235 11 9 4.8 12.9 0.00 0.18 0.18 76 1009.2
20260506162430 11 0 4.8 14.5 0.00 0.18 0.18 76 1009.2
20260506161926 11 59 4.8 14.5 0.00 0.18 0.18 75 1009.3
20260506161741 11 327 4.8 16.1 0.00 0.18 0.18 76 1009.2
20260506160927 11 86 6.4 17.7 0.00 0.18 0.18 76 1009.2
20260506160425 11 62 6.4 20.9 0.00 0.18 0.18 77 1009.2
20260506155927 11 30 6.4 20.9 0.00 0.18 0.18 77 1009.2
20260506155427 10 26 6.4 14.5 0.00 0.18 0.18 79 1009.2
20260506154926 10 0 6.4 17.7 0.00 0.18 0.18 79 1009.1
20260506154529 10 5 8.0 25.7 0.00 0.18 0.18 79 1009.2
20260506154508 10 80 8.0 17.7 0.00 0.18 0.18 79 1009.2
20260506153423 10 76 8.0 25.7 0.00 0.18 0.18 80 1009.3
20260506152923 10 96 6.4 16.1 0.00 0.18 0.18 80 1009.2
20260506152423 10 351 6.4 16.1 0.00 0.18 0.18 80 1009.2
20260506151925 10 46 6.4 14.5 0.00 0.18 0.18 80 1009.2
20260506151713 10 16 6.4 17.7 0.00 0.18 0.18 81 1009.2
20260506150922 10 13 8.0 20.9 0.00 0.18 0.18 81 1009.2
20260506150422 10 112 6.4 20.9 0.00 0.18 0.18 81 1009.3
20260506150332 10 53 8.0 17.7 0.00 0.18 0.18 82 1009.2
20260506150325 10 355 6.4 17.7 0.00 0.18 0.18 82 1009.2
20260506145023 10 0 6.4 19.3 0.00 0.18 0.18 82 1009.1
20260506145003 10 22 6.4 19.3 0.00 0.18 0.18 82 1009.1
20260506143921 10 31 4.8 17.7 0.00 0.18 0.18 83 1009.0
20260506143420 10 21 4.8 14.5 0.00 0.18 0.18 83 1009.0
20260506143224 10 84 6.4 14.5 0.00 0.18 0.18 83 1009.0
20260506142421 10 30 6.4 14.5 0.00 0.18 0.18 84 1009.0
20260506141921 10 46 6.4 16.1 0.00 0.18 0.18 84 1009.0
20260506141418 10 318 8.0 20.9 0.00 0.18 0.18 84 1009.0
20260506141023 10 333 6.4 16.1 0.00 0.18 0.18 84 1009.0
20260506141002 10 5 8.0 20.9 0.00 0.18 0.18 84 1009.0
20260506135922 10 348 6.4 16.1 0.00 0.18 0.18 84 1009.0
20260506135421 10 0 6.4 16.1 0.00 0.18 0.18 84 1009.0
20260506134918 10 42 4.8 16.1 0.00 0.18 0.18 84 1009.0
20260506134419 10 70 6.4 16.1 0.00 0.18 0.18 84 1008.9
20260506134223 10 46 8.0 17.7 0.00 0.18 0.18 83 1008.9
20260506133421 10 0 8.0 19.3 0.00 0.18 0.18 83 1009.0
20260506133238 10 350 8.0 19.3 0.00 0.18 0.18 82 1008.9
20260506132419 10 71 6.4 16.1 0.00 0.18 0.18 82 1008.9
20260506131919 10 325 8.0 17.7 0.00 0.18 0.18 82 1008.9
20260506131418 10 49 8.0 17.7 0.00 0.18 0.18 82 1008.8
20260506130919 10 355 8.0 16.1 0.00 0.18 0.18 82 1008.8
20260506130418 10 326 8.0 17.7 0.00 0.18 0.18 81 1008.8
20260506125917 10 319 8.0 19.3 0.00 0.18 0.18 81 1008.8
20260506125417 10 355 6.4 19.3 0.00 0.18 0.18 80 1008.7
20260506124918 10 47 4.8 14.5 0.00 0.18 0.18 81 1008.7
20260506124417 10 28 4.8 14.5 0.00 0.18 0.18 80 1008.6
20260506123917 10 47 6.4 14.5 0.00 0.18 0.18 80 1008.6
20260506123416 10 10 8.0 20.9 0.00 0.18 0.18 80 1008.5
20260506122918 10 38 9.7 20.9 0.00 0.18 0.18 79 1008.5
20260506122419 10 321 8.0 20.9 0.00 0.18 0.18 78 1008.5
20260506121915 11 34 8.0 19.3 0.00 0.18 0.18 78 1008.5
20260506121415 11 74 6.4 17.7 0.00 0.18 0.18 77 1008.4
20260506121229 11 348 6.4 16.1 0.00 0.18 0.18 77 1008.4
20260506120416 11 5 8.0 16.1 0.00 0.18 0.18 76 1008.3
20260506115912 11 29 8.0 16.1 0.00 0.18 0.18 76 1008.3
20260506115413 10 20 8.0 17.7 0.00 0.18 0.18 76 1008.3
20260506115221 10 72 8.0 17.7 0.00 0.18 0.18 76 1008.3
20260506114411 10 66 6.4 17.7 0.00 0.18 0.18 76 1008.3
20260506113910 10 346 4.8 16.1 0.00 0.18 0.18 77 1008.3
20260506113410 10 53 6.4 14.5 0.00 0.18 0.18 77 1008.3
20260506113226 10 46 6.4 17.7 0.00 0.18 0.18 78 1008.3
20260506112407 10 26 8.0 24.1 0.00 0.18 0.18 77 1008.3
20260506111915 10 16 4.8 12.9 0.00 0.18 0.18 81 1008.3
20260506111907 10 325 6.4 24.1 0.00 0.18 0.18 78 1008.3
20260506111608 10 343 4.8 11.3 0.00 0.18 0.18 82 1008.3
20260506111532 10 336 6.4 16.1 0.00 0.18 0.18 80 1008.3
20260506105906 10 19 4.8 16.1 0.00 0.18 0.18 82 1008.3
20260506105405 10 328 6.4 16.1 0.00 0.18 0.18 82 1008.2
20260506104906 10 339 6.4 16.1 0.00 0.18 0.18 82 1008.3
20260506104405 10 26 6.4 16.1 0.00 0.18 0.18 82 1008.3
20260506103904 10 309 6.4 19.3 0.00 0.18 0.18 82 1008.3
20260506103405 10 36 4.8 19.3 0.00 0.18 0.18 82 1008.3
20260506102902 10 0 4.8 14.5 0.00 0.18 0.18 82 1008.1
20260506102402 10 329 4.8 12.9 0.00 0.18 0.18 81 1008.2
20260506101858 10 355 4.8 12.9 0.00 0.18 0.18 81 1008.1
20260506101354 10 22 6.4 16.1 0.00 0.18 0.18 81 1008.1
20260506100846 10 5 6.4 17.7 0.00 0.18 0.18 81 1008.1
20260506100340 10 340 4.8 17.7 0.00 0.18 0.18 82 1008.0
20260506100213 10 48 4.8 9.7 0.00 0.18 0.18 82 1007.9
20260506095339 10 11 4.8 12.9 0.00 0.18 0.18 82 1007.9
20260506094836 10 324 4.8 12.9 0.00 0.18 0.18 82 1007.9
20260506094335 10 304 4.8 12.9 0.00 0.18 0.18 82 1007.9
20260506093834 9 42 4.8 16.1 0.00 0.18 0.18 83 1007.9
20260506093333 9 19 4.8 16.1 0.00 0.18 0.18 83 1007.9
20260506092836 9 43 6.4 14.5 0.00 0.18 0.18 83 1007.8
20260506092637 9 346 4.8 14.5 0.00 0.18 0.18 83 1007.8
20260506091833 9 87 4.8 14.5 0.00 0.18 0.18 84 1007.8
20260506091333 9 0 4.8 17.7 0.00 0.18 0.18 83 1007.8
20260506090831 9 90 6.4 17.7 0.00 0.18 0.18 84 1007.9
20260506090331 9 5 6.4 16.1 0.00 0.18 0.18 84 1007.8
20260506085830 9 37 8.0 19.3 0.00 0.18 0.18 84 1007.7
20260506085330 9 339 6.4 19.3 0.00 0.18 0.18 85 1007.7
20260506084829 9 65 6.4 14.5 0.00 0.18 0.18 87 1007.7
20260506084330 9 93 6.4 16.1 0.00 0.18 0.18 87 1007.7
20260506083825 9 67 6.4 16.1 0.00 0.18 0.18 88 1007.6
20260506083324 9 61 6.4 16.1 0.00 0.18 0.18 89 1007.6
20260506082824 9 0 8.0 19.3 0.00 0.18 0.18 90 1007.6
20260506082345 9 24 6.4 19.3 0.00 0.18 0.18 91 1007.5
20260506082336 8 36 8.0 19.3 0.00 0.18 0.18 91 1007.5
20260506082040 9 0 6.4 14.5 0.00 0.18 0.18 91 1007.5
20260506081950 9 11 6.4 19.3 0.00 0.18 0.18 91 1007.5
20260506080323 9 5 6.4 14.5 0.00 0.18 0.18 91 1007.5
20260506073324 9 59 4.8 12.9 0.00 0.18 0.18 92 1007.2
20260506073132 9 31 4.8 14.5 0.00 0.18 0.18 92 1007.2
20260506072629 9 5 4.8 17.7 0.00 0.18 0.18 93 1007.1
20260506072133 9 324 4.8 17.7 0.00 0.18 0.18 93 1007.1
20260506071322 9 63 4.8 14.5 0.00 0.18 0.18 93 1007.1
20260506070822 9 0 4.8 14.5 0.00 0.18 0.18 93 1007.1
20260506070451 9 304 4.8 14.5 0.00 0.18 0.18 93 1007.0
20260506070418 9 329 4.8 14.5 0.00 0.18 0.18 93 1007.0
20260506061814 8 355 3.2 9.7 0.03 0.18 0.18 94 1007.0
20260506061313 8 337 4.8 12.9 0.03 0.18 0.18 94 1006.9
20260506060813 8 348 3.2 12.9 0.03 0.18 0.18 94 1006.8
20260506060317 8 346 1.6 11.3 0.03 0.18 0.18 94 1006.8
20260506060143 8 24 1.6 6.4 0.03 0.18 0.18 94 1006.8
20260506051109 8 346 3.2 9.7 0.03 0.15 0.15 94 1006.8
20260506050658 8 5 3.2 8.0 0.03 0.15 0.15 94 1006.8
20260506050346 8 28 3.2 9.7 0.03 0.15 0.15 94 1006.8
20260506044803 8 57 4.8 12.9 0.05 0.15 0.15 94 1006.8
20260506044303 8 5 4.8 12.9 0.05 0.15 0.15 94 1006.9
20260506044059 8 329 3.2 9.7 0.05 0.15 0.15 94 1006.9
20260506043253 8 325 4.8 14.5 0.03 0.15 0.15 94 1006.9
20260506042751 8 5 3.2 14.5 0.03 0.15 0.15 95 1006.8